This is the latest recevied weather packets stored in our database for station/object VE3GSI. If no packets are shown the sender has not sent any weather packets the latest 10 day(s).
| Time | Temp. | Humidity | Pressure | Rain* | Wind** | Luminosity | Snow |
|---|---|---|---|---|---|---|---|
| 1777585565 | 9.44° C | 58% | 1008.8 hPa | 0 mm | - | - | - |
| 1777580765 | 10° C | 56% | 1008.1 hPa | 0 mm | - | - | - |
| 1777571165 | 11.11° C | 60% | 1007.5 hPa | 0 mm | - | - | - |
| 1777567565 | 10.56° C | 67% | 1007.3 hPa | 0 mm | - | - | - |
| 1777566965 | 10.56° C | 62% | 1007.4 hPa | 0 mm | - | - | - |
| 1777565165 | 9.44° C | 67% | 1007.5 hPa | 0 mm | - | - | - |
| 1777552564 | 6.67° C | 88% | 1007.5 hPa | 0 mm | - | - | - |
| 1777550764 | 6.11° C | 90% | 1007.4 hPa | 0 mm | - | - | - |
| 1777547764 | 5.56° C | 91% | 1007.2 hPa | 0 mm | - | - | - |
| 1777547164 | 5° C | 93% | 1006.9 hPa | 0 mm | - | - | - |
| 1777540565 | 5.56° C | 94% | 1006.1 hPa | 0 mm | - | - | - |
| 1777535164 | 6.11° C | 95% | 1005.5 hPa | 0 mm | - | - | - |
| 1777534565 | 6.11° C | 95% | 1005.5 hPa | 0 mm | - | - | - |
| 1777533964 | 6.11° C | 95% | 1005.4 hPa | 0 mm | - | - | - |
| 1777533364 | 6.11° C | 95% | 1005.3 hPa | 0 mm | - | - | - |
| 1777528564 | 6.67° C | 96% | 1005.3 hPa | 0.76 mm | - | - | - |
| 1777525565 | 6.67° C | 96% | 1005.5 hPa | 0.51 mm | - | - | - |
| 1777524364 | 6.67° C | 95% | 1005.4 hPa | 0.76 mm | - | - | - |
| 1777521964 | 6.67° C | 94% | 1005.4 hPa | 1.27 mm | - | - | - |
| 1777518965 | 7.22° C | 95% | 1005.5 hPa | 2.29 mm | - | - | - |
| 1777513564 | 8.89° C | 95% | 1006 hPa | 3.05 mm | - | - | - |
| 1777510564 | 10° C | 96% | 1005.8 hPa | 3.3 mm | - | - | - |
| 1777508764 | 10° C | 96% | 1005.6 hPa | 2.29 mm | - | - | - |
| 1777503964 | 10.56° C | 95% | 1005.4 hPa | 0 mm | - | - | - |
| 1777502168 | 10.56° C | 94% | 1006.4 hPa | 1.52 mm | - | - | - |
* Rain latest hour (hover to see other rain measurements)
** Current wind speed in m/s (hover to see current wind gust speed)